FENGMANIU-1 (FMN-1) (43192 NORAD) Tracking and Keplerian Element Data

This shows tracking and keplerian element data for the satellite.

Feedback or suggestion? Click here.




ElementValue
Catalog43192
NameFENGMANIU-1 (FMN-1)
Epoch Orbit16509
Epoch Day21.08515589
Epoch Year2021
RAAN156.0721
Inclination97.467
Eccentricity0.0016075
Argument of Perigee47.0227
Mean Anonmoly70.1815
Mean Motion15.26883861
Decay Rate2.383E-05
L11 43192U 18015A 21021.08515589 .00002383 00000-0 92783-4 0 9990
L22 43192 97.4670 156.0721 0016075 47.0227 70.1815 15.26883861165098

Live tracking and technical data element details for FENGMANIU-1 (FMN-1) (NORAD 43192). FENGMANIU-1 (FMN-1) can be tracked NOW for your location showing map with azimuth and elevation plus other details from your city location.

Track the satellite on the map from your city or location and see movement details for azimuth, elevation, latitude, longitude, range, height, and movement on the map or in text.







IsCatalogInMostPopularTable: catalog: 43192, numindb: 592
Update: records affected: 1



GetName: 43192 FENGMANIU-1 (FMN-1)

Hit Count: updated at: Sat, 23 Jan 2021 04:33:40 GMT